Simultaneous Nadir Overpasses (SNOs) Predictions

Prediction of SNOs between NOAA-20 and AQUA Satellite Orbit:

Table of predicted SNOs for the next 14.0 days since TLE Epoch: 4/1/2023
Index Date (NOAA-20) Time (NOAA-20) Lat,Lon (NOAA-20) SZA (NOAA-20 ) Date (AQUA) Time (AQUA) Lat,Lon (AQUA) SZA (AQUA ) Distance(km) Time Diff (sec)
1 04/02/2023 20:43:07 80.08, 131.58 86.47 04/02/2023 20:43:52 80.07, 131.43 86.47 3.13 45
2 04/02/2023 21:33:47 -80.23, -59.40 93.85 04/02/2023 21:33:13 -80.22, -59.52 93.81 2.48 34
3 04/05/2023 11:18:36 80.04, -87.66 85.53 04/05/2023 11:19:25 80.04, -87.67 85.50 0.29 49
4 04/05/2023 12:09:17 -80.17, 81.05 94.75 04/05/2023 12:08:47 -80.17, 81.09 94.73 0.72 30
5 04/08/2023 01:54:02 80.05, 53.64 84.50 04/08/2023 01:54:54 80.05, 53.55 84.48 1.85 52
6 04/08/2023 02:44:42 -80.21,-137.33 95.83 04/08/2023 02:44:15 -80.21,-137.37 95.81 0.80 27
7 04/10/2023 16:29:29 80.06,-165.13 83.50 04/10/2023 16:30:22 80.06,-165.21 83.47 1.58 53
8 04/10/2023 17:20:09 -80.22, 3.91 96.84 04/10/2023 17:19:43 -80.22, 3.89 96.82 0.49 26
9 04/13/2023 07:04:57 80.04, -24.26 82.58 04/13/2023 07:05:49 80.04, -24.23 82.53 0.59 52



Historial Predications of SNOs between NOAA-20 and AQUA
